Location: Wilsall
(45.9940°N, 110.6590°W)
Time: 15:28:43
(UTC-06:00)

Daily predictions for brighter satellites

Satellite Brightness Start Highest point End
(mag) Time Altitude Azimuth Time Altitude Azimuth Time Altitude Azimuth
Cosmos 2056 Rocket 3.6 20:51:57 10° SSW 20:57:06 86° WNW 21:02:21 10° NNE
Cosmos 1980 Rocket 2.2 20:52:31 10° SSW 20:58:03 64° ESE 21:03:36 10° NNE
Atlas Centaur 2 4.2 20:52:43 10° SW 20:58:32 22° S 21:03:43 10° SE
Cosmos 1633 2.7 20:55:50 10° S 20:59:22 54° E 21:02:55 10° NNE
YAOGAN 6 3.5 20:56:24 10° SE 20:59:32 29° ENE 21:02:39 10° N
Meteor 2-4 Rocket 4.5 20:55:44 10° N 21:00:44 34° ENE 21:05:49 10° SE
Cosmos 1092 Rocket 4.4 20:55:27 10° SSW 21:01:34 69° W 21:07:45 10° N
ATLAS 3B R/B 4.0 20:57:01 10° NNW 21:02:52 28° NNE 21:08:30 10° E
Cosmos 44 3.1 20:59:00 10° NNW 21:03:25 79° NE 21:07:58 10° SE
S3M 4.1 21:05:18 10° N 21:11:30 61° ENE 21:17:43 10° SSE
Resurs 01 Rocket 2.4 21:10:05 10° S 21:14:26 55° W 21:18:51 10° NNW
Cosmos 1697 Rocket 3.4 21:08:55 10° SW 21:14:28 61° WNW 21:20:04 10° NNE
Cosmos 1553 Rocket 4.0 21:09:02 10° N 21:15:14 70° E 21:21:19 10° SSE
Cosmos 1452 Rocket 3.5 21:15:53 10° S 21:21:05 66° ESE 21:26:21 10° NNE
Meteor 2-11 Rocket 4.5 21:15:15 10° N 21:21:22 88° W 21:27:26 10° S
Cosmos 1850 Rocket 4.4 21:16:31 10° NNW 21:21:44 49° ENE 21:26:30 12° SE
Okean 1 Rocket 4.3 21:18:35 10° SE 21:21:56 22° E 21:25:20 10° NE
CZ-4B DEB 3.6 21:20:20 14° SE 21:22:21 29° ENE 21:24:54 10° N
Tiangong 1 1.3 21:21:07 10° WSW 21:23:47 41° S 21:25:37 17° ESE
Cosmos 2227 4.4 21:19:05 10° NNW 21:24:44 77° WSW 21:30:22 10° SSE
Abrixas rocket 2.3 21:22:02 10° WSW 21:25:19 76° NNW 21:28:37 10° ENE
Cosmos 2266 Rocket 4.4 21:20:22 10° SSE 21:25:57 40° E 21:31:31 10° NNE
Cosmos 1420 Rocket 4.1 21:21:19 10° S 21:26:18 50° ESE 21:31:19 10° NNE
CZ-4B DEB 4.5 21:22:54 10° SSE 21:26:25 89° W 21:29:58 10° NNW
BREEZE-M DEB (TANK) 4.0 21:25:12 10° W 21:28:27 44° SSW 21:38:52 12° SE
Meteor 1-11 Rocket 3.9 21:22:59 10° S 21:28:41 56° E 21:34:17 10° NNE
Cosmos 1300 Rocket 4.0 21:26:31 10° SSE 21:30:31 39° E 21:34:32 10° NNE
Cosmos 921 Rocket 3.6 21:27:16 10° SSW 21:31:24 60° WNW 21:35:34 10° NNE
Cosmos 2151 Rocket 3.5 21:28:29 10° S 21:32:51 74° E 21:37:15 10° NNE
Cosmos 1602 3.6 21:29:23 10° S 21:33:14 85° E 21:37:05 10° N
ATLAS 2AS CENTAUR R/B 3.6 21:28:38 10° S 21:35:13 32° ESE 21:42:07 10° NE
Cosmos 2360 4.4 21:30:46 10° SSW 21:36:28 78° WNW 21:42:12 10° NNE
Cosmos 839 Rocket 3.9 21:33:22 10° SSW 21:39:35 78° ESE 21:45:55 10° NE
Cosmos 1939 Rocket 3.3 21:35:45 10° S 21:39:43 62° W 21:43:39 10° NNW
Cosmos 1025 Rocket 4.0 21:36:45 10° N 21:40:32 30° ENE 21:42:44 19° ESE
NOSS 3-1 (A) 3.8 21:35:51 10° SW 21:41:41 71° NW 21:48:21 10° NE
USA 186 4.2 21:40:18 10° SSW 21:43:04 24° W 21:45:54 10° NW
Terra 3.9 21:41:15 10° E 21:43:25 13° ENE 21:45:42 10° NNE
Helios 1B rocket 2.5 21:39:33 10° NNE 21:43:36 57° E 21:47:38 10° S
NOSS 2-3 (E) 4.4 21:41:29 10° S 21:45:47 37° ESE 21:50:43 10° NE
GENESIS II 4.2 21:46:05 10° NW 21:50:02 78° WSW 21:52:30 22° SSE
Cosmos 1536 2.8 21:47:24 10° S 21:51:25 63° E 21:55:28 10° NNE
MetOp-A 4.3 21:48:14 17° SSE 21:52:21 60° ENE 21:57:38 10° N
Cosmos 44 Rocket 4.4 21:48:48 10° NW 21:53:10 37° WSW 21:57:32 10° S
Lacrosse 5 rocket 2.4 21:50:09 10° WNW 21:53:29 33° SW 21:55:56 16° S
SAR-Lupe-4 3.5 21:51:29 22° SSE 21:53:41 67° ENE 21:57:16 10° N
Meteor 1-23 Rocket 4.2 21:50:57 10° N 21:56:31 70° ENE 22:00:48 17° SSE
SeaSat 1 3.3 21:53:12 10° NNE 21:58:01 54° NW 22:02:49 10° SW
Cosmos 1536 Rocket 4.1 21:54:05 10° NNW 21:58:21 58° W 22:02:35 10° S
Cosmos 2278 Rocket 4.4 21:57:32 10° N 21:59:52 12° NE 22:02:11 10° ENE
SL-08 RB Rocket 4.3 21:57:34 24° SE 21:59:54 42° ENE 22:04:12 10° N
SL-8 R/B 4.0 21:58:15 10° WNW 22:03:02 66° N 22:06:39 17° E
Meteor 1-29 2.8 22:01:47 10° NNE 22:05:14 83° E 22:07:57 15° S
Cosmos 2322 Rocket 2.1 21:59:47 10° SSW 22:05:28 78° ESE 22:11:12 10° NNE
Cosmos 2263 Rocket 2.2 22:00:17 10° NNW 22:06:02 88° ENE 22:09:44 23° SSE
ARGOS 3.2 22:04:41 22° SSE 22:08:07 66° ENE 22:13:27 10° N
SAR-Lupe-1 4.0 22:09:07 30° SSE 22:10:48 90° SSW 22:14:25 10° NNW
Cosmos 1515 4.2 22:08:29 10° N 22:12:09 42° ENE 22:13:01 36° ESE
Cosmos 1844 Rocket 3.9 22:09:42 10° N 22:14:35 28° NE 22:17:17 20° E
SL-16 R/B 2.2 22:09:07 10° SSW 22:14:47 90° NNW 22:20:30 10° NNE
H-2A R/B 2.3 22:12:37 28° SE 22:15:01 51° ENE 22:19:51 10° N
ERBS 3.1 22:12:11 10° WSW 22:15:35 54° NW 22:19:01 10° NE
SPOT 5 2.9 22:16:22 29° SE 22:18:46 65° ENE 22:23:28 10° N
NOSS 2-3 (C) 3.8 22:14:33 10° SSW 22:19:15 67° ESE 22:24:47 10° NE
Helios 1A 4.4 22:15:23 10° SSW 22:19:18 36° W 22:23:16 10° NNW
Cosmos 1741 Rocket 4.5 22:14:39 10° NNW 22:19:48 58° WSW 22:23:24 20° S
Cosmos 2322 4.2 22:20:21 29° SE 22:22:07 36° ESE 22:27:16 10° NE
Lacrosse 5 2.2 22:21:49 10° SSW 22:26:30 38° SE 22:31:11 10° ENE
Okean 2 3.2 22:22:50 10° N 22:26:57 79° E 22:28:14 42° SSE
COSMOS 2428 3.9 22:29:36 23° E 22:29:36 23° E 22:33:23 10° NE
Cosmos 2219 Rocket 4.2 22:30:51 12° ENE 22:30:51 12° ENE 22:31:47 10° ENE
Cosmos 405 4.4 22:30:23 25° ENE 22:30:23 25° ENE 22:32:34 10° NNE
USA 238 DEB 4.0 22:22:25 10° NW 22:29:27 62° NE 22:33:14 29° ESE
USA 238 4.0 22:22:31 10° NW 22:29:33 61° NE 22:33:21 29° ESE
ERS-1 Rocket 3.4 22:26:08 19° S 22:29:39 59° W 22:34:38 10° NNW
Cosmos 1500 3.5 22:31:13 45° E 22:31:13 45° E 22:34:56 10° NNE
Cosmos 1544 Rocket 4.4 22:32:08 32° E 22:32:08 32° E 22:36:01 10° NNE
Meteor 1-5 Rocket 4.4 22:32:43 10° SSW 22:38:02 68° WNW 22:43:20 10° N
Cosmos 2360 Rocket 2.1 22:37:17 23° S 22:40:47 62° ESE 22:46:21 10° NNE
Cosmos 1244 Rocket 4.4 22:39:20 27° S 22:42:50 73° E 22:48:58 10° NNE
Cosmos 2333 Rocket 4.2 22:45:14 12° ENE 22:45:14 12° ENE 22:46:10 10° ENE
BREEZE-M DEB (TANK) 3.4 22:41:55 10° W 22:42:54 21° W 22:42:54 21° W
Cosmos 1455 Rocket 3.8 22:45:17 37° E 22:45:17 37° E 22:49:06 10° NNE
Cosmos 1486 Rocket 4.2 22:41:03 10° NNW 22:46:14 55° ENE 22:47:32 43° ESE
Atlas Centaur 2 4.0 22:41:55 10° SW 22:46:51 19° SSW 22:47:04 19° S
Cosmos 1302 Rocket 4.3 22:50:31 43° ESE 22:50:39 43° ESE 22:55:39 10° NNE
DMSP B5D2-2 4.2 22:46:42 10° NNE 22:51:53 55° E 22:52:50 48° SE
ATLAS 3B R/B 2.5 22:47:39 10° NW 22:54:28 90° NE 22:56:56 42° SE
Okean 1-7 Rocket 4.4 22:51:40 10° NNW 22:55:57 47° W 22:57:45 30° SSW
YAOGAN 11 4.4 22:56:16 43° SSW 22:57:26 59° WSW 23:01:44 10° NNW
Cosmos 1110 Rocket 3.9 22:55:37 25° SSW 22:58:43 85° WNW 23:03:56 10° NNE
Tiangong 1 3.8 22:56:30 10° WSW 22:56:37 11° WSW 22:56:37 11° WSW
NOSS 2-3 (D) 4.3 22:54:14 10° SW 22:58:59 67° NW 23:04:40 10° NE
EXPRESS MD2 4.0 22:57:40 10° W 23:01:09 68° NNW 23:08:17 10° ENE
Abrixas rocket 3.1 22:59:00 10° WNW 23:01:47 49° NNW 23:01:47 49° NNW
Landsat 7 3.7 23:04:18 61° S 23:05:09 87° W 23:09:56 10° NNW
Cosmos 1975 2.8 23:05:43 76° NE 23:05:43 76° NE 23:09:27 10° N
NOSS 3-2 (C) 4.5 22:59:06 10° NNW 23:06:14 51° NE 23:10:00 30° E
SL-08 R/B 4.4 23:04:54 43° SSE 23:07:06 74° E 23:13:25 10° NNE
Cosmos 2237 Rocket 4.2 23:11:56 13° ENE 23:11:56 13° ENE 23:13:01 10° ENE
Meteor 1-21 4.5 23:06:12 10° N 23:11:40 50° ENE 23:12:23 47° E
Meteor 1-12 Rocket 4.1 23:11:12 52° S 23:12:36 79° E 23:18:16 10° NNE
Cosmos 1066 Rocket 4.1 23:08:13 10° NNW 23:13:38 78° W 23:14:55 53° S
Cosmos 1331 Rocket 4.2 23:12:56 28° SW 23:15:40 69° WNW 23:20:55 10° NNE
SPOT 1/Viking Rocket 4.1 23:14:27 37° SSW 23:16:07 52° W 23:21:14 10° NNW
CARTOSAT-1 3.4 23:16:37 88° NE 23:16:37 88° NE 23:20:57 10° NNW
IGS 5A 3.4 23:16:57 78° NNE 23:16:57 78° NNE 23:20:54 10° NNW
Cosmos 1666 4.2 23:18:35 28° NE 23:18:35 28° NE 23:20:43 10° NNE
Terra 1.6 23:20:08 78° S 23:20:28 87° WSW 23:25:16 10° NNW
Cosmos 1354 Rocket 4.2 23:15:16 10° NNW 23:20:32 58° ENE 23:21:02 55° E
Cosmos 1743 3.8 23:24:47 39° NNE 23:24:47 39° NNE 23:27:19 10° NNE
ATLAS 2AS CENTAUR R/B 3.3 23:17:54 10° SW 23:25:41 72° NW 23:33:53 10° NE
Cosmos 1602 Rocket 4.0 23:21:42 10° N 23:25:21 51° NE 23:25:21 51° NE
H-2A R/B 2.4 23:30:33 59° NNE 23:30:33 59° NNE 23:34:22 10° N
NOSS 3-4 (A) 4.5 23:37:53 30° E 23:37:53 30° E 23:41:49 10° NE
Cosmos 1745 Rocket 3.9 23:35:13 54° SSW 23:36:46 83° W 23:42:57 10° N
Spot 4 3.9 23:39:43 69° NE 23:39:43 69° NE 23:44:11 10° N
Cosmos 1503 Rocket 3.9 23:38:50 10° NNW 23:44:15 89° ENE 23:44:19 87° SE
CZ-4B R/B 4.3 23:39:42 10° NNE 23:42:53 36° NE 23:42:53 36° NE
Cosmos 2237 4.4 23:43:18 42° SW 23:45:14 69° WNW 23:50:57 10° NNE
Cosmos 2278 Rocket 2.5 23:39:48 10° NNW 23:45:22 52° ENE 23:45:48 51° ENE
SL-8 R/B 4.2 23:40:54 10° WNW 23:44:36 50° W 23:44:36 50° W
CENTAUR R/B 3.9 23:40:19 10° NNW 23:47:33 43° NE 23:51:50 25° E
Cosmos 2263 Rocket 4.4 23:46:06 10° WNW 23:49:08 15° W 23:51:27 12° WSW
Cosmos 1626 Rocket 4.1 23:47:12 10° NNW 23:50:42 55° NW 23:50:42 55° NW
H-2A R/B 3.8 23:53:15 20° WSW 23:54:42 22° W 23:58:35 10° NW
